Date,TemperatureHighF,TemperatureAvgF,TemperatureLowF,DewpointHighF,DewpointAvgF,DewpointLowF,HumidityHigh,HumidityAvg,HumidityLow,PressureMaxIn,PressureMinIn,WindSpeedMaxMPH,WindSpeedAvgMPH,GustSpeedMaxMPH,PrecipitationSumIn
2013-1-1,25,14,2,15,6,-6,74,70,65,30.36,30.01,9,4,15,0.00
2013-1-2,30,22,7,20,12,-2,71,67,58,30.31,29.95,10,4,19,0.00
2013-1-3,26,15,6,13,6,-3,69,65,54,30.37,30.06,25,7,37,0.00
2013-1-4,32,24,11,20,12,2,75,62,46,30.16,30.05,14,3,28,0.05
2013-1-5,22,15,10,10,5,0,73,65,55,30.22,29.96,8,3,22,0.01
2013-1-6,32,15,7,17,6,0,75,68,53,30.28,29.85,18,4,29,0.00
2013-1-7,35,31,27,18,16,14,63,54,46,29.97,29.82,20,9,30,0.02
2013-1-8,37,28,17,23,17,9,71,64,54,29.96,29.70,15,6,23,0.01
2013-1-9,35,30,23,22,16,12,72,58,45,30.28,29.94,20,8,33,0.05
2013-1-10,41,37,23,28,25,15,79,63,45,30.10,29.56,21,10,36,0.09
2013-1-11,34,28,13,29,23,5,81,79,71,29.56,29.40,9,4,20,0.05
2013-1-12,13,6,1,6,-3,-8,74,66,60,30.25,29.54,10,5,18,0.01
2013-1-13,14,5,-1,2,-5,-11,67,62,56,30.35,30.23,7,2,13,0.00
2013-1-14,12,5,-2,2,-4,-10,70,64,53,30.47,30.31,9,2,13,0.00
2013-1-15,28,16,5,19,5,-3,70,62,51,30.32,29.72,19,7,33,0.00
2013-1-16,37,20,0,28,12,-9,77,69,57,30.36,29.69,21,6,34,0.00
2013-1-17,24,13,-1,13,3,-11,69,62,56,30.49,30.23,10,3,16,0.00
2013-1-18,40,30,15,27,19,5,76,62,45,30.23,29.75,14,5,22,0.00
2013-1-19,38,23,0,25,10,-10,67,59,51,30.41,29.70,13,7,30,0.00
2013-1-20,9,2,-8,-2,-8,-16,70,63,51,30.52,30.41,10,5,21,0.00
2013-1-21,3,-4,-10,-6,-12,-17,71,68,61,30.52,30.43,12,5,17,0.00
2013-1-22,11,2,-7,1,-8,-18,68,62,57,30.48,30.29,3,1,7,0.00
2013-1-23,13,2,-11,4,-6,-18,73,67,51,30.76,30.25,12,4,24,0.00
2013-1-24,12,0,-11,4,-8,-19,72,69,59,30.77,30.15,14,7,25,0.00
2013-1-25,20,8,-1,9,-2,-11,69,63,49,30.40,30.07,13,5,23,0.00
2013-1-26,16,7,-2,6,-3,-10,70,63,55,30.41,30.08,11,4,19,0.00
2013-1-27,28,20,9,21,11,2,79,70,63,30.08,29.83,5,1,10,0.00
2013-1-28,32,28,23,25,21,17,80,76,68,29.88,29.72,7,2,10,0.00
2013-1-29,25,22,17,19,16,9,78,75,69,29.96,29.67,8,4,20,0.00
2013-1-30,16,6,-6,9,-3,-17,74,64,58,30.01,29.92,11,5,21,0.00
2013-1-31,-5,-9,-13,-13,-16,-20,71,69,59,30.48,30.01,8,5,22,0.00
2013-2-1,7,-4,-14,-1,-12,-23,71,67,62,30.46,30.14,8,2,16,0.00
2013-2-2,19,8,0,11,0,-8,74,68,65,30.29,30.02,8,3,23,0.00
2013-2-3,13,10,6,4,1,-3,72,66,61,30.22,30.02,10,4,16,0.00
2013-2-4,26,10,-3,18,1,-11,71,66,54,30.16,29.70,22,4,32,0.00
2013-2-5,34,20,9,24,10,2,73,66,59,30.11,29.71,18,5,27,0.00
2013-2-6,29,20,8,20,12,1,75,72,68,30.11,29.88,7,3,14,0.01
2013-2-7,22,19,17,16,13,11,78,76,73,30.37,30.11,5,2,11,0.01
2013-2-8,25,19,10,17,12,4,77,74,67,30.37,30.07,17,6,31,0.00
2013-2-9,34,28,19,25,21,13,79,75,68,30.07,29.82,8,4,14,0.05
2013-2-10,30,26,24,25,21,18,80,79,79,29.82,29.46,13,9,25,0.01
2013-2-11,24,20,18,18,13,10,79,76,70,30.10,29.67,10,6,24,0.00
2013-2-12,28,24,17,18,13,9,75,62,51,30.06,29.85,17,5,24,0.06
2013-2-13,34,30,25,26,20,15,77,66,57,29.85,29.59,11,5,18,0.08
2013-2-14,26,16,2,19,8,-7,76,69,62,30.35,29.78,7,3,18,0.01
2013-2-15,17,7,-2,7,-1,-9,75,69,59,30.47,30.34,4,1,7,0.00
2013-2-16,17,10,1,10,3,-6,75,72,67,30.35,30.08,8,3,16,0.00
2013-2-17,31,21,9,23,14,2,79,74,68,30.07,29.56,11,5,18,0.01
2013-2-18,34,15,1,26,6,-7,79,68,62,30.16,29.56,12,8,34,0.01
2013-2-19,1,-5,-12,-7,-15,-21,69,61,54,30.60,30.16,9,5,24,0.01
2013-2-20,2,-7,-17,-8,-16,-25,70,65,59,30.62,30.49,7,1,11,0.00
2013-2-21,14,5,-5,5,-4,-13,72,67,58,30.51,30.22,5,1,9,0.00
2013-2-22,21,16,12,10,7,3,74,65,55,30.23,29.98,6,2,13,0.00
2013-2-23,22,12,2,6,2,-6,75,64,48,30.02,29.93,4,1,8,0.00
2013-2-24,22,12,1,12,4,-6,75,70,62,30.16,30.02,6,2,10,0.00
2013-2-25,23,19,11,16,12,5,78,75,71,30.18,30.09,6,2,10,0.00
2013-2-26,22,19,15,16,13,9,78,77,76,30.12,30.06,4,1,11,0.00
2013-2-27,27,21,14,19,14,8,77,72,66,30.22,30.10,10,4,22,0.00
2013-2-28,26,22,17,16,13,8,74,70,59,30.35,30.22,5,2,14,0.00
2013-3-1,25,14,6,12,6,-1,77,70,57,30.48,30.35,3,1,8,0.00
2013-3-2,25,16,5,16,8,-2,77,71,65,30.45,30.13,10,4,17,0.00
2013-3-3,29,20,10,20,13,4,77,73,65,30.14,29.86,17,6,26,0.00
2013-3-4,26,25,23,20,19,16,79,77,74,29.96,29.83,15,9,25,0.00
2013-3-5,25,22,17,19,15,9,79,74,68,30.45,29.94,7,1,16,0.00
2013-3-6,21,18,16,11,9,8,74,69,62,30.51,30.37,8,2,15,0.00
2013-3-7,25,20,16,17,12,9,76,73,68,30.37,30.21,15,8,24,0.00
2013-3-8,30,20,10,24,13,4,79,76,69,30.31,30.06,8,2,12,0.00
2013-3-9,32,29,27,27,24,21,80,79,78,30.06,29.79,0,0,0,0.00
2013-3-10,26,20,11,20,12,2,77,73,67,30.22,29.99,0,0,0,0.00
2013-3-11,29,16,6,20,7,-2,71,66,55,30.14,29.91,5,1,14,0.00
2013-3-12,29,22,17,20,13,8,75,69,60,30.37,29.94,8,5,20,0.00
2013-3-13,24,15,2,17,6,-5,74,68,59,30.47,30.16,9,3,15,0.00
2013-3-14,36,29,18,25,20,12,78,71,58,30.18,30.06,8,2,15,0.01
2013-3-15,30,23,15,23,17,8,78,75,71,30.10,29.89,7,3,20,0.02
2013-3-16,14,8,0,8,-1,-7,75,67,59,30.40,30.09,7,3,17,0.01
2013-3-17,28,13,2,22,5,-6,79,69,63,30.39,29.68,17,8,31,0.00
2013-3-18,34,16,8,28,8,-4,79,69,60,30.08,29.51,23,12,31,0.00
2013-3-19,17,9,0,8,-2,-10,67,62,53,30.44,30.07,7,4,18,0.00
2013-3-20,18,9,2,9,-1,-9,67,62,53,30.46,30.28,6,3,14,0.00
2013-3-21,15,6,-2,4,-3,-10,72,64,55,30.28,30.16,6,1,9,0.00
2013-3-22,21,11,0,10,2,-8,76,66,51,30.23,30.16,4,1,7,0.00
2013-3-23,27,20,14,16,10,5,72,65,48,30.27,30.21,4,1,9,0.00
2013-3-24,29,21,11,17,12,4,76,68,53,30.26,30.16,7,3,17,0.00
2013-3-25,28,22,13,15,12,5,74,67,50,30.41,30.25,7,3,21,0.00
2013-3-26,24,16,8,13,7,1,76,67,56,30.42,30.35,5,1,8,0.00
2013-3-27,33,19,4,23,12,-3,77,73,67,30.38,30.33,7,2,11,0.00
2013-3-28,37,29,20,27,21,14,78,73,64,30.35,30.25,6,2,11,0.00
2013-3-29,40,31,23,30,24,17,79,75,65,30.26,29.93,5,1,8,0.01
2013-3-30,40,36,31,34,27,-100,80,73,62,30.00,29.92,6,3,14,0.02
2013-3-31,35,28,19,26,18,8,74,64,55,30.27,29.92,11,6,25,0.01
2013-4-1,31,21,12,19,10,4,70,63,51,30.40,30.27,5,2,12,0.00
2013-4-2,29,22,15,18,11,7,72,63,47,30.42,30.34,8,2,10,0.00
2013-4-3,51,33,18,36,22,11,77,64,40,30.40,29.92,9,4,21,0.00
2013-4-4,39,33,25,28,21,15,70,61,48,30.29,30.06,8,3,17,0.00
2013-4-5,36,28,20,26,20,12,74,70,63,30.29,29.79,14,6,21,0.00
2013-4-6,41,35,32,30,26,25,76,71,61,29.88,29.63,8,4,16,0.00
2013-4-7,37,34,30,29,25,22,79,72,65,29.93,29.77,8,3,16,0.05
2013-4-8,34,31,23,28,25,15,81,77,66,30.22,29.75,11,4,23,0.05
2013-4-9,25,21,16,14,10,2,70,62,54,30.33,30.16,13,7,27,0.01
2013-4-10,34,28,24,22,17,13,70,61,46,30.36,30.01,15,5,26,0.00
2013-4-11,31,29,27,25,23,21,79,78,71,30.03,29.79,19,9,27,0.08
2013-4-12,33,28,25,23,21,19,79,74,60,29.96,29.83,9,3,16,0.03
2013-4-13,32,28,23,22,19,16,76,69,57,29.96,29.90,8,4,14,0.01
2013-4-14,31,29,27,26,23,20,80,78,71,29.92,29.38,24,11,34,0.00
2013-4-15,35,32,28,26,23,20,81,70,56,30.08,29.36,18,7,25,0.11
2013-4-16,35,30,26,22,20,17,71,64,55,30.39,30.07,8,3,14,0.01
2013-4-17,32,31,29,25,24,22,79,75,71,30.40,30.12,9,3,17,0.00
2013-4-18,32,30,28,26,23,16,79,75,64,30.12,29.85,9,6,25,0.11
2013-4-19,34,28,21,22,16,11,65,60,49,30.14,29.81,11,5,25,0.02
2013-4-20,33,26,16,23,15,7,76,63,49,30.29,30.14,10,3,18,0.00
2013-4-21,39,34,30,30,26,22,77,72,65,30.24,30.01,13,6,25,0.20
2013-4-22,33,29,26,24,20,17,77,70,61,30.37,30.23,9,3,16,0.16
2013-4-23,38,29,19,25,17,9,72,61,48,30.37,30.10,10,3,14,0.01
2013-4-24,41,34,27,27,21,15,76,59,51,30.13,29.94,19,10,27,0.02
2013-4-25,47,36,23,32,23,13,67,60,46,30.20,29.94,17,5,32,0.02
2013-4-26,68,50,31,42,33,25,78,55,28,30.11,29.89,10,2,14,0.01
2013-4-27,74,58,46,47,38,32,61,48,30,30.11,29.72,11,5,19,0.00
2013-4-28,64,56,44,46,40,26,62,56,42,29.85,29.61,14,6,25,0.00
2013-4-29,69,52,35,47,34,24,70,53,33,29.88,29.36,10,4,19,0.00
2013-4-30,60,53,40,43,36,25,69,53,39,30.05,29.24,19,9,28,0.00
2013-5-1,44,36,31,30,23,17,65,57,48,30.62,30.04,8,4,22,0.00
2013-5-2,44,35,28,29,23,18,74,60,44,30.72,30.55,9,3,18,0.00
2013-5-3,50,37,24,30,23,16,75,59,43,30.55,30.24,9,4,18,0.00
2013-5-4,42,39,37,32,28,21,78,65,52,30.26,30.22,7,3,15,0.08
2013-5-5,46,41,37,36,33,31,79,74,65,30.25,30.16,4,1,10,0.07
2013-5-6,66,52,40,49,39,33,77,63,41,30.17,30.01,5,1,10,0.01
2013-5-7,76,61,45,49,42,35,69,51,28,30.03,29.88,13,4,25,0.06
2013-5-8,64,58,52,49,45,40,70,63,51,30.02,29.89,6,1,13,0.12
2013-5-9,66,55,42,48,40,31,71,58,43,30.14,30.01,16,6,23,0.02
2013-5-10,69,53,38,47,32,-100,68,48,25,30.15,29.87,16,5,33,0.01
2013-5-11,52,44,37,30,22,-100,61,45,25,30.29,30.10,15,6,27,0.00
2013-5-12,62,48,32,31,22,17,62,39,18,30.28,30.03,8,2,13,0.00
2013-5-13,90,65,47,50,39,27,51,40,21,30.04,29.59,18,7,28,0.00
2013-5-14,90,72,56,54,44,31,60,40,15,29.76,29.47,20,6,29,0.02
2013-5-15,79,66,51,49,43,34,60,45,25,29.86,29.76,14,6,23,0.01
2013-5-16,79,63,52,52,26,-100,59,42,24,29.86,29.73,16,4,26,0.00
2013-5-17,69,63,54,52,44,-100,69,58,51,29.85,29.79,11,5,20,0.00
2013-5-18,84,69,57,61,55,50,78,62,41,29.83,29.63,12,4,21,0.03
2013-5-19,74,67,60,58,54,49,78,65,42,29.64,29.47,12,4,25,0.43
2013-5-20,64,60,57,55,52,50,80,76,68,29.49,29.36,6,3,18,0.75
2013-5-21,58,52,47,51,46,40,80,78,73,29.80,29.44,15,5,24,0.66
2013-5-22,60,50,45,45,42,39,80,73,54,30.06,29.78,19,6,28,0.28
2013-5-23,63,55,46,47,41,33,77,60,43,30.29,30.06,10,3,15,0.01
2013-5-24,62,52,40,48,40,31,71,63,45,30.28,30.07,13,5,24,0.19
2013-5-25,60,55,51,48,45,43,76,70,62,30.11,30.04,12,8,25,0.01
2013-5-26,54,51,49,45,43,41,79,74,70,30.13,29.96,16,6,27,0.04
2013-5-27,60,55,51,50,47,45,80,75,67,30.00,29.75,6,4,14,0.01
2013-5-28,73,61,54,57,50,47,80,69,42,29.80,29.62,6,3,14,0.00
2013-5-29,68,61,54,61,54,47,80,75,59,29.72,29.49,18,4,23,2.24
2013-5-30,76,68,62,60,55,50,79,65,43,29.49,29.33,12,6,25,1.89
2013-5-31,65,60,55,53,49,44,77,68,56,29.45,29.26,11,5,23,0.03
2013-6-1,58,51,47,51,42,-100,79,74,64,30.06,29.46,12,6,27,0.20
2013-6-2,65,54,44,47,41,35,78,62,45,30.13,30.00,6,2,11,0.01
2013-6-3,66,55,44,48,42,35,75,61,41,30.02,29.85,15,4,21,0.04
2013-6-4,72,61,54,55,47,41,72,62,39,29.93,29.86,12,4,21,0.18
2013-6-5,65,58,53,50,44,40,73,61,41,30.01,29.92,10,2,16,0.00
2013-6-6,60,55,51,46,44,40,76,65,50,30.04,29.99,10,2,14,0.00
2013-6-7,71,60,47,51,46,41,79,62,44,30.04,29.83,8,2,14,0.00
2013-6-8,64,59,56,50,46,40,77,63,48,29.84,29.76,13,7,25,0.12
2013-6-9,62,58,56,52,50,48,79,75,66,29.84,29.74,11,6,21,0.89
2013-6-10,76,63,49,60,51,43,81,67,45,29.85,29.74,9,2,15,0.01
2013-6-11,73,66,61,56,53,45,76,63,40,29.92,29.76,9,2,12,0.03
2013-6-12,71,65,58,55,50,45,70,58,51,30.03,29.70,14,4,28,0.15
2013-6-13,78,67,55,55,50,43,66,55,40,30.11,29.97,8,3,15,0.02
2013-6-14,83,71,60,66,56,49,70,60,42,30.00,29.69,14,5,27,0.00
2013-6-15,80,73,62,61,50,43,65,46,29,29.90,29.75,7,2,14,0.00
2013-6-16,82,71,59,60,51,41,59,50,36,29.90,29.80,12,4,19,0.02
2013-6-17,77,68,59,56,51,45,67,54,45,29.98,29.87,10,4,19,0.20
2013-6-18,80,68,57,58,52,48,73,58,45,30.05,29.92,5,1,17,0.20
2013-6-19,87,75,60,63,55,48,69,52,32,29.95,29.77,8,3,17,0.00
2013-6-20,81,69,61,64,58,52,79,68,53,29.92,29.78,19,6,38,1.03
2013-6-22,78,75,67,60,58,56,71,56,50,29.86,29.75,8,3,19,0.08
2013-6-23,78,72,65,62,58,53,78,62,50,29.81,29.59,13,5,25,0.38
2013-6-24,80,70,60,62,57,51,74,62,50,29.81,29.69,11,3,19,0.04
2013-6-25,89,77,65,71,64,58,80,66,53,29.71,29.57,9,4,19,0.00
2013-6-26,86,76,65,64,60,58,77,59,42,29.76,29.59,9,3,22,0.28
2013-6-27,84,78,67,62,57,53,67,48,36,29.85,29.79,13,7,24,0.05
2013-6-28,81,76,68,60,57,50,60,53,44,29.88,29.84,10,7,27,0.00
2013-6-29,79,71,61,59,54,51,71,57,43,29.98,29.85,7,3,17,0.00
2013-6-30,79,72,59,57,52,48,74,51,37,30.11,29.98,10,2,18,0.00
2013-7-1,83,77,62,60,52,47,60,43,32,30.19,30.10,6,2,12,0.00
2013-7-2,85,78,60,60,53,47,64,43,31,30.11,29.99,6,2,17,0.00
2013-7-3,85,78,62,60,55,50,67,47,34,30.00,29.84,7,3,17,0.00
2013-7-4,88,78,61,65,58,48,69,51,35,29.85,29.67,14,5,28,0.00
2013-7-5,90,82,72,65,61,55,60,50,36,29.70,29.67,6,1,11,0.00
2013-7-6,81,75,71,65,61,58,73,62,50,29.72,29.69,4,1,10,0.03
2013-7-7,85,75,67,67,62,55,80,66,50,29.90,29.70,6,2,16,0.01
2013-7-8,85,73,61,67,57,-100,73,60,48,29.96,29.84,5,1,12,0.00
2013-7-9,79,70,64,63,59,55,79,69,50,29.98,29.65,10,3,21,0.83
2013-7-10,81,68,56,61,52,-100,75,60,48,30.08,29.97,3,1,8,0.05
2013-7-11,85,72,58,68,58,50,76,62,50,30.01,29.78,12,4,24,0.00
2013-7-12,91,83,72,73,67,55,76,58,44,29.80,29.66,12,6,21,0.13
2013-7-13,83,76,72,69,66,62,79,72,60,29.92,29.74,8,2,14,0.14
2013-7-14,74,71,69,66,63,61,80,78,71,30.12,29.90,8,2,14,0.24
2013-7-15,85,74,68,68,63,59,81,70,50,30.13,30.02,9,2,16,0.01
2013-7-16,88,78,68,68,64,60,76,61,48,30.11,30.03,11,4,22,0.00
2013-7-17,90,81,71,71,65,60,73,59,44,30.12,29.99,10,4,19,0.00
2013-7-18,91,87,76,72,69,60,63,56,53,29.87,29.65,8,4,23,0.00
2013-7-19,83,76,65,65,59,53,69,56,48,29.88,29.76,7,4,15,0.00
2013-7-20,74,63,61,57,51,-100,78,68,51,29.94,29.85,4,1,11,0.05
2013-7-21,83,72,58,67,59,50,77,64,50,29.91,29.69,6,2,15,0.01
2013-7-22,75,69,60,62,56,50,78,64,50,29.90,29.61,7,2,15,0.12
2013-7-23,73,64,54,56,52,47,78,65,53,30.01,29.89,5,1,11,0.01
2013-7-24,81,70,57,63,55,48,74,61,49,30.04,29.89,5,1,12,0.01
2013-7-25,79,69,61,62,56,46,74,63,51,29.96,29.87,6,1,12,0.02
2013-7-26,69,61,53,51,47,41,74,61,48,30.14,29.97,9,4,19,0.02
2013-7-27,69,58,47,48,43,39,76,59,42,30.16,30.00,7,2,19,0.00
2013-7-28,71,61,47,51,45,39,76,58,41,30.05,30.00,8,1,14,0.00
2013-7-29,71,60,49,55,49,41,79,69,51,30.04,30.01,7,1,14,0.49
2013-7-30,77,67,59,59,55,51,79,67,46,30.05,29.96,5,1,12,0.03
2013-7-31,77,68,59,60,54,45,77,62,44,30.08,30.00,7,2,20,0.00
2013-8-1,80,72,57,59,54,44,66,54,43,30.02,29.85,4,1,11,0.00
2013-8-2,74,65,56,56,50,45,70,59,45,30.06,29.88,5,1,9,0.00
2013-8-3,74,62,55,55,49,43,72,62,49,30.18,30.06,7,2,13,0.00
2013-8-10,74,70,62,57,55,52,73,58,53,30.15,30.03,4,2,10,0.00
2013-8-11,76,65,57,61,55,50,80,71,54,30.05,30.01,6,1,11,0.00
2013-8-12,78,67,55,58,52,46,75,60,43,30.07,30.02,4,1,10,0.00
2013-8-13,74,63,51,53,45,-100,72,56,39,30.19,30.12,4,1,9,0.00
2013-8-14,76,63,51,56,46,-100,77,59,43,30.16,30.03,7,1,11,0.00
2013-8-15,77,59,55,59,38,-100,78,61,48,30.09,30.03,7,1,10,0.00
2013-8-16,76,64,55,60,50,-100,78,65,52,30.12,30.06,8,2,14,0.00
2013-8-28,85,79,73,70,68,66,79,70,60,29.91,29.87,5,1,10,0.06
2013-8-29,95,83,70,74,68,63,81,63,47,29.88,29.74,9,3,17,0.01
2013-8-30,85,74,66,67,61,57,80,65,47,29.92,29.81,5,1,10,0.01
2013-8-31,91,73,65,69,59,-100,76,66,45,29.85,29.67,6,2,22,0.26
2013-9-1,68,63,54,52,50,46,74,63,49,30.03,29.80,6,2,17,0.05
2013-9-2,72,58,47,53,46,41,80,66,44,30.11,30.00,3,1,9,0.01
2013-9-3,81,66,50,64,53,42,77,65,50,30.01,29.92,7,2,13,0.01
2013-9-4,81,68,60,65,57,52,80,69,49,30.09,29.96,6,1,11,0.00
2013-9-5,87,73,61,68,59,53,77,64,49,30.12,29.96,10,4,22,0.00
2013-9-6,90,83,65,71,66,57,75,58,51,29.91,29.77,4,1,9,0.00
2013-9-7,88,74,66,70,61,-100,78,66,50,29.95,29.82,5,1,11,0.00
2013-9-8,73,66,63,62,58,53,79,73,66,29.97,29.78,6,2,14,0.06
2013-9-9,78,68,65,66,60,57,80,74,54,29.78,29.59,9,3,15,0.02
2013-9-10,78,71,66,61,57,53,78,64,52,29.93,29.76,8,2,15,0.02
2013-9-11,83,72,59,60,52,43,68,50,31,30.12,29.93,9,3,20,0.00
2013-9-12,72,63,51,52,47,40,70,57,47,30.25,30.12,7,2,13,0.00
2013-9-13,76,61,48,52,46,41,77,60,37,30.22,29.97,9,2,14,0.00
2013-9-14,61,57,52,52,46,-100,81,71,55,29.97,29.76,9,3,16,0.61
2013-9-15,63,56,48,51,47,41,81,72,53,30.31,29.87,5,2,13,0.20
2013-9-16,68,54,41,50,43,35,81,67,48,30.36,30.12,10,3,19,0.01
2013-9-17,66,58,49,53,48,41,79,72,59,30.12,29.80,11,6,20,0.01
2013-9-18,77,61,59,59,54,52,81,79,54,29.80,29.55,8,4,16,0.01
2013-9-19,76,71,62,61,53,47,73,54,43,29.80,29.57,10,6,21,0.09
2013-9-20,62,56,46,45,41,35,71,59,49,29.98,29.85,8,3,16,0.05
2013-9-21,67,51,39,47,37,-100,74,61,47,30.01,29.84,5,1,12,0.00
2013-9-22,85,70,46,58,51,38,73,52,37,29.86,29.60,14,8,29,0.00
2013-9-23,80,73,62,53,50,44,59,45,35,29.73,29.62,14,8,28,0.00
2013-9-24,74,64,54,57,50,44,71,61,49,29.89,29.78,5,1,11,0.01
2013-9-25,77,68,50,58,51,42,75,56,41,29.87,29.68,12,6,25,0.01
2013-9-26,82,78,62,61,59,50,64,52,46,29.69,29.63,12,6,25,0.00
2013-9-27,79,64,52,62,50,43,73,62,53,29.76,29.61,7,2,12,0.23
2013-9-28,63,54,50,45,40,-100,76,61,42,29.86,29.61,9,4,19,1.04
2013-9-29,78,70,51,49,45,34,59,43,30,29.87,29.56,10,5,21,0.01
2013-9-30,81,70,59,54,49,42,60,48,32,29.56,29.44,8,3,25,0.00
2013-10-1,64,55,50,42,39,34,62,55,39,29.94,29.88,1,0,3,0.00
2013-10-2,64,54,45,45,39,32,74,56,42,29.96,29.84,9,3,14,0.27
2013-10-3,53,49,45,45,42,38,77,75,74,30.03,29.88,9,2,15,0.40
2013-10-4,53,50,48,45,42,40,77,75,70,30.03,29.82,13,6,21,0.70
2013-10-5,52,47,40,45,36,30,77,67,53,29.81,29.67,18,5,26,0.31
2013-10-6,59,48,42,41,38,34,76,67,46,29.91,29.79,9,4,21,0.15
2013-10-7,69,56,43,47,39,32,67,54,36,29.97,29.83,5,2,12,0.01
2013-10-8,76,64,47,49,46,37,67,51,38,29.83,29.60,13,4,22,0.00
2013-10-9,71,63,49,52,47,37,66,56,49,29.92,29.75,6,2,10,0.00
2013-10-10,78,65,49,56,50,41,73,58,47,29.87,29.66,9,4,19,0.00
2013-10-11,70,63,56,50,47,41,69,58,45,29.53,29.33,14,9,33,0.02
2013-10-12,57,49,43,38,31,-100,62,52,41,30.19,29.58,13,7,27,0.01
2013-10-13,56,47,37,39,32,25,65,56,42,30.40,30.23,4,1,10,0.00
2013-10-14,46,44,42,37,35,29,76,70,52,30.34,29.85,18,9,27,1.95
2013-10-15,45,43,41,38,35,31,76,73,67,30.04,29.75,18,7,28,1.12
2013-10-16,55,44,31,40,32,24,75,63,46,30.04,29.85,13,4,20,0.01
2013-10-17,46,43,38,34,31,28,72,64,54,29.93,29.80,9,3,18,0.10
2013-10-18,48,40,33,34,27,22,70,61,52,30.03,29.83,10,5,19,0.01
2013-10-19,45,40,34,30,26,-100,69,59,48,29.84,29.72,10,5,18,0.01
2013-10-20,41,37,33,34,29,17,75,71,52,30.01,29.59,8,4,19,0.09
2013-10-21,41,35,28,25,22,16,70,58,49,30.03,29.98,7,2,15,0.01
2013-10-22,37,32,26,24,20,17,72,64,49,30.12,30.01,5,1,10,0.00
2013-10-23,40,35,31,25,22,19,71,60,48,30.22,30.07,8,2,19,0.00
2013-10-24,38,33,30,24,22,19,70,63,54,30.36,30.21,7,2,15,0.01
2013-10-25,60,50,30,45,35,19,64,57,46,30.35,29.83,16,7,31,0.00
2013-10-26,46,39,30,33,24,-100,63,56,51,30.21,29.96,8,4,19,0.00
2013-10-27,51,43,31,34,28,19,64,56,47,30.15,29.79,13,5,22,0.00
2013-10-28,38,31,24,25,18,-100,72,63,50,30.49,30.23,8,3,14,0.00
2013-10-29,32,31,29,26,23,15,77,74,52,30.47,30.13,6,2,10,0.03
2013-10-30,36,34,32,30,28,26,78,77,77,30.14,29.75,4,0,8,0.18
2013-10-31,42,38,35,30,29,27,77,70,61,29.75,29.47,6,3,11,0.01
2013-11-1,45,40,35,33,29,26,69,64,53,29.94,29.52,10,4,17,0.01
2013-11-2,52,40,32,36,26,-100,71,60,49,30.08,29.97,5,3,11,0.01
2013-11-3,56,44,32,36,30,23,72,59,45,30.01,29.65,15,8,31,0.00
2013-11-4,45,41,33,29,27,19,65,57,51,30.13,29.68,12,4,23,0.00
2013-11-5,38,34,29,24,20,15,60,56,49,30.28,30.16,4,1,8,0.00
2013-11-6,43,33,24,29,21,13,66,59,45,30.19,30.11,18,6,28,0.00
2013-11-7,48,36,25,30,22,14,68,57,47,30.30,30.16,12,5,18,0.00
2013-11-8,48,36,25,36,24,16,70,63,48,30.16,29.57,13,5,22,0.03
2013-11-9,43,38,34,32,24,-100,66,58,50,30.32,29.69,18,9,34,0.03
2013-11-10,41,30,22,27,18,10,71,62,50,30.35,30.13,9,3,22,0.00
2013-11-11,21,15,8,10,3,-2,66,60,52,30.87,30.34,10,4,21,0.00
2013-11-12,37,22,8,21,7,-2,67,53,31,30.88,30.32,8,3,17,0.00
2013-11-13,58,43,30,37,27,13,62,53,43,30.32,29.88,15,5,25,0.00
2013-11-14,51,43,38,38,29,24,62,57,52,29.83,29.78,12,5,18,0.00
2013-11-15,57,41,27,40,29,18,73,62,49,29.81,29.43,17,5,28,0.00
2013-11-16,46,39,33,35,29,-100,76,70,53,29.44,29.22,8,2,19,0.02
2013-11-17,40,35,30,33,26,17,76,68,59,29.97,29.33,8,4,20,0.01
2013-11-18,36,29,24,23,17,14,66,60,50,30.22,29.98,8,3,16,0.01
2013-11-19,53,44,23,35,30,14,73,57,45,30.17,29.65,13,8,23,0.00
2013-11-20,50,41,22,34,27,12,67,58,50,30.15,29.65,13,5,23,0.00
2013-11-21,22,16,9,13,4,-4,67,59,52,30.71,30.15,11,6,24,0.00
2013-11-22,27,17,5,13,4,-5,65,58,45,30.86,30.57,15,4,21,0.00
2013-11-23,15,6,-1,4,-6,-100,65,59,47,31.01,30.73,4,1,11,0.00
2013-11-24,43,28,6,27,13,-6,61,53,37,30.71,29.89,23,8,37,0.00
2013-11-25,39,33,28,25,20,13,63,58,51,30.18,29.92,16,7,22,0.00
2013-11-26,24,18,8,10,5,-2,66,57,50,30.51,30.29,9,4,21,0.00
2013-11-27,27,14,5,13,3,-4,69,61,44,30.51,30.02,13,3,25,0.00
2013-11-28,23,18,10,11,6,-2,63,58,45,30.53,30.15,7,2,16,0.00
2013-11-29,38,21,10,25,9,0,64,59,43,30.53,30.06,12,5,24,0.00
2013-11-30,31,24,21,16,12,-100,72,63,52,30.26,30.05,4,2,13,0.00
2013-12-1,31,23,20,16,14,13,75,68,53,30.26,29.87,5,2,10,0.00
2013-12-2,34,30,27,27,22,16,77,72,63,29.84,29.54,7,2,12,0.01
2013-12-3,28,23,18,22,16,10,77,74,71,29.88,29.65,6,3,16,0.01
2013-12-4,25,18,6,19,10,-4,76,72,63,29.91,29.70,12,4,24,0.00
2013-12-5,6,2,-4,-4,-11,-16,63,55,50,30.47,29.90,16,10,25,0.00
2013-12-6,0,-5,-9,-8,-15,-20,69,60,51,30.79,30.47,8,4,13,0.00
2013-12-7,-1,-7,-12,-9,-15,-100,71,68,58,30.80,30.62,12,3,16,0.00
2013-12-8,6,1,-6,-4,-9,-17,68,63,57,30.61,30.16,5,2,11,0.00
2013-12-9,17,0,-7,7,-11,-20,70,58,47,30.24,29.81,15,8,23,0.00
2013-12-10,16,7,-1,7,-6,-15,68,55,45,30.49,29.85,15,7,23,0.00
2013-12-11,16,-1,-9,7,-11,-22,70,61,48,30.65,30.27,26,5,35,0.00
2013-12-12,21,14,9,9,3,0,68,61,53,30.35,30.20,9,2,12,0.00
2013-12-13,11,7,4,1,-2,-5,67,65,62,30.41,30.22,13,3,17,0.00
2013-12-14,9,4,-1,-4,-8,-100,67,60,52,30.41,30.25,6,2,13,0.00
2013-12-15,4,-1,-3,-5,-12,-15,65,59,55,30.30,30.14,8,2,13,0.00
2013-12-16,34,17,4,20,6,-5,71,63,52,30.14,30.00,15,7,25,0.01
2013-12-17,34,22,13,20,10,3,67,60,51,30.17,29.98,14,4,25,0.01
2013-12-18,42,29,13,29,16,3,67,57,43,29.98,29.65,11,5,16,0.08
2013-12-19,10,0,-1,-1,-10,-12,65,60,56,30.26,30.02,11,5,22,0.01
2013-12-20,7,2,-2,-4,-7,-11,68,64,59,30.24,29.96,4,1,13,0.00
2013-12-21,4,-1,-7,-5,-12,-100,69,63,57,30.22,29.95,5,2,13,0.00
2013-12-22,0,-3,-7,-11,-14,-21,69,58,49,30.54,30.21,7,4,20,0.00
2013-12-23,-2,-9,-15,-11,-17,-25,70,65,57,30.73,30.54,6,2,15,0.00
2013-12-24,21,5,-16,11,-4,-25,70,64,56,30.57,30.16,10,5,21,0.00
2013-12-25,31,26,20,22,15,8,70,63,52,30.24,30.09,14,6,20,0.00
2013-12-26,33,27,21,20,17,13,71,64,53,30.18,30.05,5,1,8,0.01
2013-12-27,41,34,26,26,22,16,69,61,49,30.16,29.91,16,6,31,0.01
2013-12-28,36,16,-6,24,4,-100,73,63,50,30.42,29.69,13,6,31,0.00
2013-12-29,-1,-6,-11,-11,-15,-20,71,66,50,30.57,30.33,9,3,28,0.00
2013-12-30,4,-1,-9,-6,-11,-19,65,61,56,30.40,30.21,5,2,11,0.00
2013-12-31,-1,-7,-16,-11,-18,-27,64,57,50,30.54,30.34,4,1,11,0.00
2014-1-1,-3,-7,-13,-13,-18,-24,63,58,54,30.64,30.53,2,0,5,0.00
2014-1-2,0,-10,-17,-11,-20,-27,63,60,59,30.66,30.32,7,1,16,0.00